Location: Vinland
(47.7731°N, 122.6974°W)
Time: 04:56:41
(UTC+00:00)

Vanguard 2 - Pass Details

Date: 25 April 2024
Orbit: 552 x 2914 km, 32.9° (Epoch: 25 May)

Event Time Altitude Azimuth Distance (km) Brightness Sun altitude
Exits shadow 08:24:09 35° 152° (SSE) 3,578 10.4 -28.7°
Drops below altitude 10° 08:38:21 10° 98° (E) 5,720 11.9 -28.5°
Sets 08:43:28 0° 90° (E) 6,760 12.5 -28.3°
